When you browse on this site, cookies collect data to enhance your experience and personalize the content and advertising you see.
Visit our Privacy Policy to learn more. By continuing to use the site, you agree to this use of cookies and data.
  • In Slovakia
  • List of Countries
  • For 7 days
  • Water Temperature
  • Weather Map
  • Weather Widgets
  • user-avatar
    Login

    Hourly Weather Córdoba

    Today, 10 December, Tuesday

    Time Temperature Precipitation Wind Pressure Humidity
    00:00 +25°C° 0 mm 2 mps 721 mmHg 31%
    01:00 +25°C° 0 mm 2 mps 721 mmHg 33%
    02:00 +24°C° 0 mm 2 mps 721 mmHg 35%
    03:00 +24°C° 0 mm 2 mps 721 mmHg 36%
    04:00 +24°C° 0 mm 2 mps 721 mmHg 38%
    05:00 +24°C° 0 mm 3 mps 721 mmHg 39%
    06:00 +27°C° 0 mm 3 mps 722 mmHg 36%
    07:00 +29°C° 0 mm 3 mps 722 mmHg 32%
    08:00 +33°C° 0 mm 3 mps 722 mmHg 28%
    09:00 +34°C° 0 mm 3 mps 722 mmHg 24%
    10:00 +36°C° 0 mm 3 mps 722 mmHg 19%
    11:00 +38°C° 0 mm 3 mps 722 mmHg 15%
    12:00 +38°C° 0 mm 3 mps 722 mmHg 14%
    13:00 +39°C° 0 mm 2 mps 721 mmHg 13%
    14:00 +40°C° 0 mm 2 mps 720 mmHg 12%
    15:00 +40°C° 0 mm 2 mps 720 mmHg 12%
    16:00 +39°C° 0 mm 2 mps 719 mmHg 12%
    17:00 +39°C° 0 mm 2 mps 719 mmHg 12%
    18:00 +37°C° 0 mm 2 mps 719 mmHg 16%
    19:00 +34°C° 0 mm 2 mps 719 mmHg 20%
    20:00 +30°C° 0 mm 3 mps 719 mmHg 23%
    21:00 +30°C° 0 mm 3 mps 719 mmHg 25%
    22:00 +29°C° 0 mm 3 mps 720 mmHg 27%
    23:00 +28°C° 0 mm 3 mps 720 mmHg 29%

    Tomorrow, 11 December, Wednesday

    Time Temperature Precipitation Wind Pressure Humidity
    00:00 +28°C° 0 mm 3 mps 719 mmHg 30%
    01:00 +27°C° 0 mm 2 mps 719 mmHg 31%
    02:00 +27°C° 0 mm 2 mps 719 mmHg 31%
    03:00 +26°C° 0 mm 2 mps 718 mmHg 33%
    04:00 +26°C° 0 mm 2 mps 718 mmHg 35%
    05:00 +25°C° 0 mm 2 mps 718 mmHg 37%
    06:00 +28°C° 0 mm 3 mps 718 mmHg 35%
    07:00 +31°C° 0 mm 3 mps 719 mmHg 33%
    08:00 +34°C° 0 mm 4 mps 719 mmHg 32%
    09:00 +36°C° 0 mm 4 mps 719 mmHg 28%
    10:00 +38°C° 0 mm 4 mps 718 mmHg 23%
    11:00 +41°C° 0 mm 4 mps 718 mmHg 19%
    12:00 +41°C° 0 mm 4 mps 717 mmHg 19%
    13:00 +41°C° 0 mm 4 mps 716 mmHg 19%
    14:00 +41°C° 0 mm 4 mps 715 mmHg 19%
    15:00 +41°C° 0 mm 4 mps 715 mmHg 19%
    16:00 +40°C° 0 mm 3 mps 714 mmHg 19%
    17:00 +40°C° 0 mm 3 mps 714 mmHg 19%
    18:00 +37°C° 0 mm 3 mps 714 mmHg 27%
    19:00 +33°C° 0 mm 4 mps 715 mmHg 34%
    20:00 +29°C° 0 mm 5 mps 715 mmHg 42%
    21:00 +27°C° 0.1 mm 5 mps 716 mmHg 44%
    22:00 +26°C° 0.1 mm 5 mps 717 mmHg 46%
    23:00 +23°C° 0.1 mm 4 mps 718 mmHg 49%

    Day after tomorrow, 12 December, Thursday

    Time Temperature Precipitation Wind Pressure Humidity
    00:00 +23°C° 0.3 mm 4 mps 718 mmHg 52%
    01:00 +22°C° 0.3 mm 3 mps 718 mmHg 54%
    02:00 +23°C° 0.3 mm 2 mps 719 mmHg 57%
    03:00 +21°C° 0.1 mm 4 mps 719 mmHg 53%
    04:00 +21°C° 0.1 mm 5 mps 719 mmHg 50%
    05:00 +21°C° 0.1 mm 6 mps 720 mmHg 46%
    06:00 +22°C° 0 mm 6 mps 720 mmHg 37%
    07:00 +23°C° 0 mm 7 mps 721 mmHg 28%
    08:00 +24°C° 0 mm 7 mps 722 mmHg 20%
    09:00 +27°C° 0 mm 7 mps 722 mmHg 17%
    10:00 +28°C° 0 mm 6 mps 722 mmHg 14%
    11:00 +30°C° 0 mm 6 mps 722 mmHg 12%
    12:00 +32°C° 0 mm 6 mps 722 mmHg 11%
    13:00 +33°C° 0 mm 5 mps 721 mmHg 11%
    14:00 +33°C° 0 mm 5 mps 721 mmHg 10%
    15:00 +33°C° 0 mm 4 mps 721 mmHg 10%
    16:00 +33°C° 0 mm 4 mps 720 mmHg 10%
    17:00 +33°C° 0 mm 4 mps 720 mmHg 11%
    18:00 +29°C° 0 mm 3 mps 720 mmHg 12%
    19:00 +27°C° 0 mm 3 mps 720 mmHg 13%
    20:00 +25°C° 0 mm 2 mps 721 mmHg 15%
    21:00 +24°C° 0 mm 2 mps 721 mmHg 16%
    22:00 +23°C° 0 mm 2 mps 722 mmHg 17%
    23:00 +21°C° 0 mm 2 mps 722 mmHg 18%

    13 December, Friday

    Time Temperature Precipitation Wind Pressure Humidity
    00:00 +20°C° 0 mm 2 mps 722 mmHg 19%
    01:00 +20°C° 0 mm 2 mps 722 mmHg 19%
    02:00 +19°C° 0 mm 3 mps 722 mmHg 19%
    03:00 +19°C° 0 mm 2 mps 722 mmHg 19%
    04:00 +18°C° 0 mm 2 mps 722 mmHg 19%
    05:00 +17°C° 0 mm 2 mps 723 mmHg 19%
    06:00 +19°C° 0 mm 2 mps 723 mmHg 17%
    07:00 +21°C° 0 mm 2 mps 724 mmHg 15%
    08:00 +24°C° 0 mm 1 mps 724 mmHg 13%
    09:00 +26°C° 0 mm 2 mps 724 mmHg 13%
    10:00 +27°C° 0 mm 3 mps 724 mmHg 12%
    11:00 +29°C° 0 mm 4 mps 724 mmHg 11%
    12:00 +30°C° 0 mm 4 mps 723 mmHg 11%
    13:00 +33°C° 0 mm 5 mps 723 mmHg 11%
    14:00 +34°C° 0 mm 6 mps 722 mmHg 11%
    15:00 +33°C° 0 mm 6 mps 721 mmHg 12%
    16:00 +33°C° 0 mm 6 mps 720 mmHg 13%
    17:00 +33°C° 0 mm 6 mps 720 mmHg 15%
    18:00 +30°C° 0 mm 5 mps 720 mmHg 17%
    19:00 +28°C° 0 mm 3 mps 720 mmHg 20%
    20:00 +26°C° 0 mm 2 mps 720 mmHg 23%
    21:00 +25°C° 0 mm 2 mps 720 mmHg 25%
    22:00 +24°C° 0 mm 2 mps 720 mmHg 27%
    23:00 +24°C° 0 mm 2 mps 721 mmHg 29%

    14 December, Saturday

    Time Temperature Precipitation Wind Pressure Humidity
    00:00 +23°C° 0 mm 2 mps 720 mmHg 31%
    01:00 +22°C° 0 mm 3 mps 720 mmHg 34%
    02:00 +22°C° 0 mm 3 mps 720 mmHg 37%
    03:00 +22°C° 0 mm 3 mps 720 mmHg 39%
    04:00 +21°C° 0 mm 3 mps 720 mmHg 41%
    05:00 +21°C° 0 mm 2 mps 720 mmHg 43%
    06:00 +24°C° 0 mm 3 mps 720 mmHg 40%
    07:00 +26°C° 0 mm 3 mps 721 mmHg 37%
    08:00 +28°C° 0 mm 4 mps 721 mmHg 34%
    09:00 +29°C° 0 mm 4 mps 721 mmHg 34%
    10:00 +30°C° 0 mm 4 mps 721 mmHg 34%
    11:00 +32°C° 0 mm 4 mps 721 mmHg 34%
    12:00 +33°C° 0.1 mm 4 mps 720 mmHg 34%
    13:00 +33°C° 0.1 mm 4 mps 720 mmHg 34%
    14:00 +34°C° 0.1 mm 4 mps 719 mmHg 33%
    15:00 +34°C° 0.1 mm 3 mps 719 mmHg 34%
    16:00 +34°C° 0.1 mm 3 mps 718 mmHg 34%
    17:00 +34°C° 0.1 mm 3 mps 718 mmHg 35%
    18:00 +31°C° 0 mm 3 mps 718 mmHg 43%
    19:00 +29°C° 0 mm 2 mps 719 mmHg 51%
    20:00 +26°C° 0 mm 2 mps 719 mmHg 60%
    21:00 +26°C° 0 mm 2 mps 719 mmHg 61%
    22:00 +25°C° 0 mm 1 mps 720 mmHg 63%
    23:00 +25°C° 0 mm 1 mps 720 mmHg 64%

    15 December, Sunday

    Time Temperature Precipitation Wind Pressure Humidity
    00:00 +24°C° 0 mm 1 mps 720 mmHg 66%
    01:00 +24°C° 0 mm 2 mps 720 mmHg 68%
    02:00 +24°C° 0 mm 2 mps 720 mmHg 70%
    03:00 +22°C° 0.1 mm 3 mps 720 mmHg 70%
    04:00 +21°C° 0.1 mm 3 mps 720 mmHg 71%
    05:00 +21°C° 0.1 mm 4 mps 721 mmHg 71%
    06:00 +22°C° 0 mm 4 mps 722 mmHg 60%
    07:00 +23°C° 0 mm 4 mps 722 mmHg 49%
    08:00 +26°C° 0 mm 5 mps 723 mmHg 38%
    09:00 +28°C° 0 mm 5 mps 723 mmHg 32%
    10:00 +30°C° 0 mm 5 mps 724 mmHg 26%
    11:00 +34°C° 0 mm 6 mps 724 mmHg 20%
    12:00 +33°C° 0 mm 5 mps 724 mmHg 22%
    13:00 +33°C° 0 mm 4 mps 723 mmHg 23%
    14:00 +33°C° 0 mm 3 mps 723 mmHg 24%
    15:00 +32°C° 0.1 mm 2 mps 722 mmHg 27%
    16:00 +31°C° 0.1 mm 2 mps 722 mmHg 29%
    17:00 +31°C° 0.1 mm 2 mps 721 mmHg 32%
    18:00 +30°C° 0 mm 2 mps 722 mmHg 33%
    19:00 +28°C° 0 mm 2 mps 722 mmHg 35%
    20:00 +27°C° 0 mm 1 mps 722 mmHg 36%
    21:00 +27°C° 0 mm 1 mps 722 mmHg 36%
    22:00 +26°C° 0 mm 1 mps 722 mmHg 36%
    23:00 +26°C° 0 mm 1 mps 723 mmHg 36%
    Show more